Regional Weather Roundup
Issued by NWS Green Bay, WI

Home | Current Version | Previous Version | Text Only | Print | Product List | Glossary On
Versions: 1 2 3 4 5 6 7 8 9 10 11 12 13 14 15 16 17 18 19 20 21 22 23 24 25 26 27 28 29 30 31 32 33 34 35 36 37 38 39 40 41 42 43 44 45 46 47 48 49 50
000
ASUS43 KGRB 211810
RWRGRB

NORTH-CENTRAL AND NORTHEAST WISCONSIN REGIONAL WEATHER ROUNDUP
NATIONAL WEATHER SERVICE GREEN BAY WI
100 PM CDT TUE OCT 21 2014

WIZ005-009-010>012-018-019-211900-
NORTH CENTRAL WISCONSIN

CITY           SKY/WX    TMP DP  RH WIND       PRES   REMARKS
IRONWOOD       PTSUNNY   43  34  70 CALM      30.23F
MANITOWISH WTR CLOUDY    40  34  80 E3        30.25S
ARBOR VITAE    CLOUDY    42  35  76 E6        30.25S
EAGLE RIVER    CLOUDY    41  32  70 E3        30.25S
LAND O LAKES   CLOUDY    41  33  74 E3        30.25F
RHINELANDER    CLOUDY    43  34  70 N6        30.25F
PHILLIPS       CLOUDY    43  35  73 E3        30.23F
ANTIGO         SUNNY     46  36  68 CALM      30.24S
TOMAHAWK       CLOUDY    43  33  69 CALM      30.25F
MERRILL        MOSUNNY   47  35  63 E6        30.24F
$$

WIZ013-073-211900-
NORTHEAST WISCONSIN

CITY           SKY/WX    TMP DP  RH WIND       PRES   REMARKS
IRON MOUNTAIN  SUNNY     47  31  53 N7        30.23F
MARINETTE      MOSUNNY   50  34  53 E13       30.23S
OCONTO         MOSUNNY   49  33  54 CALM      30.23S
$$

WIZ017-030-035>037-045-211900-
CENTRAL WISCONSIN

CITY           SKY/WX    TMP DP  RH WIND       PRES   REMARKS
MEDFORD        CLOUDY    47  37  67 SE7       30.24S
WAUSAU         PTSUNNY   48  35  60 VRB3      30.23F
MOSINEE        NOT AVBL
MARSHFIELD     PTSUNNY   48  37  65 VRB6      30.24S
WISC RAPIDS    CLOUDY    47  35  63 VRB5      30.26F
STEVENS POINT  MOSUNNY   45  34  64 SE6       30.25F
WAUPACA        CLOUDY    50  36  60 N6        30.25F
SHAWANO        SUNNY     51  35  54 E3        30.25S
CLINTONVILLE   MOSUNNY   50  34  53 NE5       30.24S
$$

WIZ038-039-048-051-211900-
FOX VALLEY

CITY           SKY/WX    TMP DP  RH WIND       PRES   REMARKS
NWS GREEN BAY  SUNNY     49  35  58 NE12      30.24F
APPLETON       PTSUNNY   46  34  61 N9        30.24S
OSHKOSH        CLOUDY    47  36  65 NE9       30.24S
FOND DU LAC    CLOUDY    46  37  71 NE14      30.24S
$$

WIZ022-050-052-211900-
EAST CENTRAL WISCONSIN

CITY           SKY/WX    TMP DP  RH WIND       PRES   REMARKS
STURGEON BAY   PTSUNNY   48  34  57 N14       30.23F
MANITOWOC      PTSUNNY   50  36  58 NE12      30.22F
SHEBOYGAN      PTSUNNY   50  36  58 NE14      30.22S
$$

LMZ563-521-522-541>543-211900-
LAKESHORE

STATION/POSITION TIME  TEMP    WIND        PRES    VSBY  WAVE
                       AIR SEA DIR/SP/G                  HT/PER
                 (UTC) (F)     (DEG/KT/KT) (MB)    (MI)  (FT/S)
SHEBOYGAN LKSHOR 1800   47 49   10/ 19/ 21 1023.9R
KEWAUNEE LKSHORE 1800   47      30/ 12/ 15 1022.6
NORTHPORT PIER   1800   47     360/ 10/ 16 1023.7S
N MID LAKE BUOY  1800   44 51   20/ 12/ 16 1023.8S         2/ 5
CHAMBERS ISLAND  1800   48      10/ 13/ 16 1023.7S
MENOMINEE LKSHOR 1800   47      50/ 10/ 13 1024.3
$$



USA.gov is the U.S. government's official web portal to all federal, state and local government web resources and services.